Weather History for Firenze / Peretola, Italy

Change the Weather History Date:

Wednesday, August 28, 2013

  Actual Average Record
Temperature  
Mean Temperature 74 °F -  
Max Temperature 84 °F 80 °F - ()
Min Temperature 64 °F 58 °F - ()
Cooling Degree Days 9    
Growing Degree Days 24 (Base 50)    
Moisture  
Dew Point 62 °F    
Average Humidity 68    
Maximum Humidity 100    
Minimum Humidity 37    
Precipitation  
Precipitation 0.00 in 0.10 in - ()
Sea Level Pressure  
Sea Level Pressure 29.90 in    
Wind  
Wind Speed 3 mph ()    
Max Wind Speed 18 mph    
Max Gust Speed 20 mph    
Visibility 6.9 miles    
Events Rain , Thunderstorm    
T = Trace of Precipitation, MM = Missing Value Source: Averaged Metar Reports

Daily Weather History Graph

Daily Weather History Graph

Search for Another Location

Airport:

Trip Planner

Search our weather history database for the weather conditions in past years. The results will help you decide how hot, cold, wet, or windy it might be!

Date:

Astronomy

Aug. 28, 2013 Rise Set
Actual Time 6:34 AM CEST 7:57 PM CEST
Civil Twilight 6:04 AM CEST 8:27 PM CEST
Nautical Twilight 5:28 AM CEST 9:03 PM CEST
Astronomical Twilight 4:49 AM CEST 9:41 PM CEST
Moon No Moon Rise 2:25 PM CEST (8/28)
Length of Visible Light 14h 23m
Length of Day
13h 23m
Waning Gibbous, 50% of the Moon is Illuminated
Aug 28
Waning Gibbous
Sep 5
New
Sep 12
First Quarter
Sep 19
Full
Sep 27
Last Quarter

Hourly Weather History & Observations

Time (CEST) Temp. Heat Index Dew Point Humidity Pressure Visibility Wind Dir Wind Speed Gust Speed Precip Events Conditions
12:20 AM 71.6 °F - 62.6 °F 73% 29.83 in 6.2 mi East 3.5 mph - N/A   Scattered Clouds
12:50 AM 71.6 °F - 62.6 °F 73% 29.86 in 6.2 mi Variable 2.3 mph - N/A   Scattered Clouds
1:20 AM 69.8 °F - 62.6 °F 78% 29.86 in 6.2 mi Variable 2.3 mph - N/A   Scattered Clouds
1:50 AM 69.8 °F - 62.6 °F 78% 29.86 in 6.2 mi Calm Calm - N/A   Partly Cloudy
2:00 AM 69 °F - 63 °F 74% 29.86 in 9 mi East 1.2 mph - -   Scattered Clouds
2:20 AM 68.0 °F - 62.6 °F 83% 29.86 in 6.2 mi Calm Calm - N/A   Scattered Clouds
2:50 AM 69.8 °F - 64.4 °F 83% 29.86 in 6.2 mi SW 3.5 mph - N/A   Scattered Clouds
3:20 AM 68.0 °F - 64.4 °F 88% 29.86 in 6.2 mi Calm Calm - N/A Thunderstorm Scattered Clouds
3:50 AM 66.2 °F - 64.4 °F 94% 29.83 in 6.2 mi WNW 3.5 mph - N/A   Partly Cloudy
4:20 AM 64.4 °F - 64.4 °F 100% 29.83 in 6.2 mi Calm Calm - N/A   Partly Cloudy
4:50 AM 66.2 °F - 64.4 °F 94% 29.86 in 6.2 mi Variable 1.2 mph - N/A   Scattered Clouds
5:00 AM 66 °F - 64 °F 93% 29.87 in 9 mi East 2.2 mph - -   Partly Cloudy
5:20 AM 66.2 °F - 64.4 °F 94% 29.89 in 6.2 mi Calm Calm - N/A   Scattered Clouds
5:50 AM 68.0 °F - 62.6 °F 83% 29.89 in 6.2 mi Variable 1.2 mph - N/A   Mostly Cloudy
6:20 AM 68.0 °F - 64.4 °F 88% 29.89 in 6.2 mi Variable 2.3 mph - N/A Thunderstorm Mostly Cloudy
6:50 AM 66.2 °F - 64.4 °F 94% 29.89 in 3.7 mi SW 5.8 mph - N/A Rain Rain Showers
7:20 AM 66.2 °F - 64.4 °F 94% 29.89 in 6.2 mi Variable 1.2 mph - N/A Rain Light Rain
7:50 AM 66.2 °F - 64.4 °F 94% 29.89 in 6.2 mi Variable 1.2 mph - N/A   Scattered Clouds
8:00 AM 67 °F - 65 °F 89% 29.90 in 12 mi South 2.3 mph - - Rain Light Rain
8:20 AM 68.0 °F - 64.4 °F 88% 29.89 in 6.2 mi SSW 2.3 mph - N/A   Partly Cloudy
8:50 AM 68.0 °F - 64.4 °F 88% 29.89 in 6.2 mi SSW 3.5 mph - N/A   Partly Cloudy
9:20 AM 69.8 °F - 66.2 °F 88% 29.89 in 6.2 mi South 3.5 mph - N/A   Partly Cloudy
9:50 AM 71.6 °F - 64.4 °F 78% 29.89 in 6.2 mi Variable 2.3 mph - N/A   Partly Cloudy
10:20 AM 73.4 °F - 62.6 °F 69% 29.89 in - Variable 2.3 mph - N/A   Clear
10:50 AM 75.2 °F - 62.6 °F 65% 29.92 in 6.2 mi Variable 3.5 mph - N/A   Partly Cloudy
11:00 AM 75 °F - 62 °F 56% 29.92 in 12 mi SSE 6.7 mph - -   Partly Cloudy
11:20 AM 75.2 °F - 62.6 °F 65% 29.92 in 6.2 mi East 3.5 mph - N/A   Partly Cloudy
11:50 AM 77.0 °F - 62.6 °F 61% 29.92 in 6.2 mi SSW 4.6 mph - N/A   Scattered Clouds
12:20 PM 78.8 °F - 62.6 °F 57% 29.92 in 6.2 mi SSW 4.6 mph - N/A   Scattered Clouds
12:50 PM 78.8 °F - 59.0 °F 51% 29.92 in 6.2 mi SSW 6.9 mph - N/A   Scattered Clouds
1:20 PM 80.6 °F 81.1 °F 59.0 °F 48% 29.92 in 6.2 mi SW 6.9 mph - N/A   Scattered Clouds
1:50 PM 82.4 °F 82.5 °F 59.0 °F 45% 29.89 in 6.2 mi Variable 5.8 mph - N/A   Mostly Cloudy
2:00 PM 81 °F - 61 °F 40% 29.91 in 12 mi SSW 17.9 mph - -   Mostly Cloudy
2:20 PM 80.6 °F 81.1 °F 59.0 °F 48% 29.89 in 6.2 mi WNW 4.6 mph - N/A   Mostly Cloudy
2:50 PM 80.6 °F 81.1 °F 59.0 °F 48% 29.89 in 6.2 mi West 6.9 mph - N/A   Mostly Cloudy
3:20 PM 84.2 °F 83.8 °F 59.0 °F 42% 29.89 in 6.2 mi WSW 9.2 mph - N/A   Scattered Clouds
3:50 PM 82.4 °F 82.0 °F 57.2 °F 42% 29.89 in 6.2 mi WSW 8.1 mph - N/A   Scattered Clouds
4:20 PM 84.2 °F 83.0 °F 55.4 °F 37% 29.89 in 6.2 mi SSW 10.4 mph - N/A   Scattered Clouds
4:50 PM 84.2 °F 83.5 °F 57.2 °F 40% 29.89 in 6.2 mi WSW 8.1 mph 19.6 mph N/A   Partly Cloudy
5:20 PM 82.4 °F 81.7 °F 55.4 °F 39% 29.89 in 6.2 mi SW 10.4 mph - N/A   Partly Cloudy
5:50 PM 82.4 °F 81.7 °F 55.4 °F 39% 29.89 in 6.2 mi Variable 8.1 mph - N/A   Partly Cloudy
6:20 PM 82.4 °F 82.5 °F 59.0 °F 45% 29.92 in 6.2 mi WSW 8.1 mph - N/A   Partly Cloudy
6:50 PM 80.6 °F 81.1 °F 59.0 °F 48% 29.92 in 6.2 mi SW 10.4 mph - N/A   Partly Cloudy
7:20 PM 80.6 °F 80.8 °F 57.2 °F 45% 29.92 in 6.2 mi SW 9.2 mph - N/A   Partly Cloudy
7:50 PM 78.8 °F - 59.0 °F 51% 29.92 in - WSW 8.1 mph - N/A   Clear
8:00 PM 78 °F - 60 °F 43% 29.94 in 16 mi WSW 8.1 mph - -   Scattered Clouds
8:20 PM 77.0 °F - 60.8 °F 57% 29.95 in - WSW 5.8 mph - N/A   Clear
8:50 PM 77.0 °F - 60.8 °F 57% 29.95 in - SW 4.6 mph - N/A   Clear
9:20 PM 75.2 °F - 62.6 °F 65% 29.98 in - SW 4.6 mph - N/A   Clear
9:50 PM 73.4 °F - 62.6 °F 69% 29.98 in - Variable 2.3 mph - N/A   Clear
10:20 PM 71.6 °F - 62.6 °F 73% 29.98 in - Variable 2.3 mph - N/A   Clear
10:50 PM 69.8 °F - 62.6 °F 78% 29.98 in - Variable 3.5 mph - N/A   Clear
11:20 PM 69.8 °F - 62.6 °F 78% 29.98 in - Calm Calm - N/A   Clear
11:50 PM 69.8 °F - 62.6 °F 78% 30.01 in - East 4.6 mph - N/A   Clear